| time (UTC) | temp F | wind direction | speed MPH | gust MPH | rain 1hr in | rain 24hr in | rain mn in | humidity % | barometer mb |
| 20260831175018 | 70 | 23 | 1.0 | 5.0 | 0.00 | 0.13 | 0.09 | 63 | 1020.0 |
| 20260831174017 | 71 | 68 | 1.0 | 6.0 | 0.00 | 0.13 | 0.09 | 64 | 1020.0 |
| 20260831173017 | 71 | 68 | 1.0 | 4.0 | 0.00 | 0.13 | 0.09 | 64 | 1019.8 |
| 20260831172022 | 72 | 0.0 | 2.0 | 0.00 | 0.13 | 0.09 | 64 | 1019.7 | |
| 20260831171017 | 72 | 23 | 1.0 | 4.0 | 0.00 | 0.13 | 0.09 | 64 | 1019.6 |
| 20260831170017 | 72 | 338 | 1.0 | 4.0 | 0.00 | 0.13 | 0.09 | 63 | 1019.5 |
| 20260831165017 | 72 | 270 | 1.0 | 2.0 | 0.00 | 0.13 | 0.09 | 63 | 1019.3 |
| 20260831164017 | 73 | 338 | 1.0 | 2.0 | 0.00 | 0.13 | 0.09 | 62 | 1019.3 |
| 20260831163018 | 74 | 180 | 1.0 | 3.0 | 0.00 | 0.13 | 0.09 | 61 | 1019.1 |
| 20260831162020 | 75 | 45 | 2.0 | 5.0 | 0.00 | 0.13 | 0.09 | 58 | 1019.0 |
| 20260831161017 | 75 | 225 | 2.0 | 5.0 | 0.00 | 0.13 | 0.09 | 57 | 1018.9 |
| 20260831160018 | 75 | 225 | 1.0 | 5.0 | 0.00 | 0.13 | 0.09 | 58 | 1018.8 |
| 20260831155017 | 74 | 45 | 2.0 | 5.0 | 0.00 | 0.13 | 0.09 | 58 | 1018.7 |
| 20260831154018 | 74 | 338 | 1.0 | 5.0 | 0.00 | 0.13 | 0.09 | 59 | 1018.6 |
| 20260831153017 | 75 | 180 | 1.0 | 5.0 | 0.00 | 0.13 | 0.09 | 56 | 1018.5 |
| 20260831152017 | 76 | 68 | 1.0 | 4.0 | 0.00 | 0.13 | 0.09 | 56 | 1018.5 |
| 20260831151017 | 76 | 225 | 1.0 | 4.0 | 0.00 | 0.13 | 0.09 | 57 | 1018.3 |
| 20260831150017 | 78 | 0 | 1.0 | 5.0 | 0.00 | 0.13 | 0.09 | 55 | 1018.4 |
| 20260831145017 | 77 | 225 | 2.0 | 6.0 | 0.00 | 0.13 | 0.09 | 58 | 1018.3 |
| 20260831144017 | 76 | 225 | 2.0 | 4.0 | 0.00 | 0.13 | 0.09 | 57 | 1018.2 |
| 20260831143017 | 77 | 225 | 3.0 | 6.0 | 0.00 | 0.14 | 0.09 | 56 | 1018.1 |
| 20260831142017 | 77 | 248 | 1.0 | 4.0 | 0.00 | 0.14 | 0.09 | 59 | 1018.1 |
| 20260831141017 | 75 | 68 | 1.0 | 5.0 | 0.00 | 0.14 | 0.09 | 65 | 1018.1 |
| 20260831140017 | 73 | 203 | 1.0 | 4.0 | 0.00 | 0.14 | 0.09 | 64 | 1018.0 |
| 20260831135017 | 73 | 0 | 2.0 | 4.0 | 0.00 | 0.14 | 0.09 | 63 | 1017.9 |
| 20260831134017 | 73 | 45 | 1.0 | 3.0 | 0.00 | 0.14 | 0.09 | 64 | 1017.8 |
| 20260831133017 | 71 | 68 | 1.0 | 4.0 | 0.00 | 0.14 | 0.09 | 66 | 1017.9 |
| 20260831132018 | 72 | 23 | 1.0 | 5.0 | 0.00 | 0.14 | 0.09 | 64 | 1017.7 |
| 20260831131017 | 72 | 338 | 1.0 | 6.0 | 0.00 | 0.14 | 0.09 | 64 | 1017.4 |
| 20260831130017 | 73 | 180 | 2.0 | 4.0 | 0.00 | 0.14 | 0.09 | 63 | 1017.3 |
| 20260831125017 | 73 | 225 | 1.0 | 3.0 | 0.00 | 0.14 | 0.09 | 65 | 1017.2 |
| 20260831124018 | 72 | 225 | 2.0 | 6.0 | 0.00 | 0.14 | 0.09 | 69 | 1017.2 |
| 20260831123037 | 71 | 68 | 2.0 | 5.0 | 0.00 | 0.14 | 0.09 | 66 | 1017.0 |
| 20260831122017 | 71 | 45 | 1.0 | 4.0 | 0.00 | 0.14 | 0.09 | 67 | 1016.9 |
| 20260831121017 | 72 | 225 | 2.0 | 4.0 | 0.00 | 0.14 | 0.09 | 63 | 1016.7 |
| 20260831120017 | 73 | 225 | 2.0 | 6.0 | 0.00 | 0.14 | 0.09 | 64 | 1016.5 |
| 20260831115057 | 72 | 225 | 3.0 | 8.0 | 0.00 | 0.14 | 0.09 | 64 | 1016.4 |
| 20260831114017 | 73 | 45 | 1.0 | 3.0 | 0.00 | 0.14 | 0.09 | 66 | 1016.3 |
| 20260831113017 | 73 | 248 | 2.0 | 5.0 | 0.00 | 0.14 | 0.09 | 63 | 1016.2 |
| 20260831112017 | 73 | 0 | 2.0 | 5.0 | 0.00 | 0.14 | 0.09 | 69 | 1016.0 |
| 20260831111018 | 72 | 45 | 1.0 | 4.0 | 0.00 | 0.14 | 0.09 | 70 | 1016.0 |
| 20260831110037 | 71 | 68 | 2.0 | 8.0 | 0.00 | 0.14 | 0.09 | 71 | 1015.8 |
| 20260831105017 | 70 | 180 | 1.0 | 4.0 | 0.00 | 0.14 | 0.09 | 76 | 1015.7 |
| 20260831104018 | 69 | 225 | 2.0 | 7.0 | 0.00 | 0.14 | 0.09 | 78 | 1015.7 |
| 20260831103017 | 67 | 90 | 1.0 | 4.0 | 0.00 | 0.14 | 0.09 | 79 | 1015.6 |
| 20260831102017 | 66 | 225 | 2.0 | 5.0 | 0.00 | 0.14 | 0.09 | 80 | 1015.5 |
| 20260831101017 | 66 | 203 | 1.0 | 2.0 | 0.00 | 0.14 | 0.09 | 81 | 1015.4 |
| 20260831100017 | 65 | 68 | 1.0 | 4.0 | 0.00 | 0.14 | 0.09 | 83 | 1015.2 |
| 20260831095017 | 64 | 203 | 2.0 | 6.0 | 0.00 | 0.14 | 0.09 | 84 | 1015.2 |
| 20260831094037 | 64 | 113 | 1.0 | 4.0 | 0.00 | 0.14 | 0.09 | 85 | 1015.2 |
| 20260831093017 | 63 | 225 | 1.0 | 4.0 | 0.00 | 0.14 | 0.09 | 84 | 1015.0 |
| 20260831092017 | 63 | 225 | 2.0 | 9.0 | 0.00 | 0.14 | 0.09 | 84 | 1014.9 |
| 20260831091058 | 63 | 338 | 1.0 | 4.0 | 0.00 | 0.14 | 0.09 | 86 | 1014.7 |
| 20260831090017 | 63 | 68 | 1.0 | 3.0 | 0.00 | 0.14 | 0.09 | 87 | 1014.5 |
| 20260831085017 | 62 | 225 | 1.0 | 4.0 | 0.00 | 0.14 | 0.09 | 87 | 1014.5 |
| 20260831084017 | 62 | 248 | 2.0 | 6.0 | 0.00 | 0.14 | 0.09 | 87 | 1014.3 |
| 20260831083017 | 62 | 225 | 1.0 | 4.0 | 0.00 | 0.15 | 0.09 | 88 | 1014.0 |
| 20260831082017 | 62 | 225 | 2.0 | 7.0 | 0.00 | 0.15 | 0.09 | 89 | 1013.9 |
| 20260831081037 | 61 | 180 | 1.0 | 6.0 | 0.00 | 0.15 | 0.09 | 90 | 1013.7 |
| 20260831080037 | 61 | 203 | 2.0 | 6.0 | 0.00 | 0.15 | 0.09 | 90 | 1013.5 |
| 20260831075038 | 60 | 203 | 2.0 | 5.0 | 0.00 | 0.15 | 0.09 | 91 | 1013.4 |
| 20260831074017 | 60 | 203 | 1.0 | 5.0 | 0.00 | 0.15 | 0.09 | 91 | 1013.3 |
| 20260831073017 | 60 | 225 | 2.0 | 4.0 | 0.00 | 0.15 | 0.09 | 92 | 1013.3 |
| 20260831072017 | 59 | 225 | 2.0 | 5.0 | 0.00 | 0.15 | 0.09 | 92 | 1013.1 |
| 20260831071017 | 59 | 203 | 2.0 | 5.0 | 0.00 | 0.15 | 0.09 | 93 | 1013.0 |
| 20260831070017 | 59 | 225 | 2.0 | 5.0 | 0.00 | 0.15 | 0.09 | 93 | 1012.9 |
| 20260831065017 | 58 | 225 | 2.0 | 5.0 | 0.00 | 0.15 | 0.09 | 93 | 1012.7 |
| 20260831064018 | 58 | 225 | 2.0 | 5.0 | 0.00 | 0.15 | 0.09 | 94 | 1012.5 |
| 20260831063017 | 58 | 203 | 2.0 | 5.0 | 0.01 | 0.15 | 0.09 | 94 | 1012.5 |
| 20260831062017 | 57 | 203 | 2.0 | 5.0 | 0.01 | 0.15 | 0.09 | 94 | 1012.3 |
| 20260831061015 | 57 | 203 | 2.0 | 5.0 | 0.01 | 0.15 | 0.09 | 94 | 1012.1 |
| 20260831060037 | 57 | 203 | 2.0 | 4.0 | 0.01 | 0.15 | 0.09 | 94 | 1012.0 |
| 20260831055017 | 57 | 203 | 2.0 | 6.0 | 0.01 | 0.15 | 0.09 | 94 | 1011.8 |
| 20260831054017 | 57 | 203 | 2.0 | 3.0 | 0.01 | 0.15 | 0.09 | 94 | 1011.7 |
| 20260831053018 | 57 | 203 | 2.0 | 4.0 | 0.00 | 0.14 | 0.08 | 94 | 1011.6 |
| 20260831052017 | 57 | 203 | 2.0 | 3.0 | 0.00 | 0.14 | 0.08 | 94 | 1011.5 |
| 20260831051017 | 57 | 225 | 1.0 | 4.0 | 0.00 | 0.14 | 0.08 | 94 | 1011.3 |
| 20260831050017 | 56 | 203 | 1.0 | 3.0 | 0.00 | 0.14 | 0.08 | 94 | 1011.2 |
| 20260831045037 | 57 | 203 | 1.0 | 3.0 | 0.00 | 0.14 | 0.08 | 94 | 1011.1 |
| 20260831044038 | 57 | 203 | 1.0 | 3.0 | 0.00 | 0.14 | 0.08 | 94 | 1011.0 |
| 20260831043038 | 57 | 203 | 1.0 | 3.0 | 0.00 | 0.14 | 0.08 | 94 | 1010.9 |
| 20260831042058 | 57 | 203 | 1.0 | 4.0 | 0.00 | 0.14 | 0.08 | 94 | 1011.0 |
| 20260831040017 | 57 | 203 | 2.0 | 4.0 | 0.00 | 0.14 | 0.08 | 94 | 1010.8 |
| 20260831035018 | 57 | 180 | 1.0 | 4.0 | 0.00 | 0.14 | 0.08 | 93 | 1010.8 |
| 20260831034017 | 57 | 180 | 1.0 | 3.0 | 0.00 | 0.14 | 0.08 | 93 | 1010.8 |
| 20260831033017 | 57 | 180 | 2.0 | 3.0 | 0.00 | 0.15 | 0.08 | 93 | 1010.7 |
| 20260831032017 | 57 | 180 | 2.0 | 4.0 | 0.00 | 0.15 | 0.08 | 93 | 1010.6 |
| 20260831031018 | 57 | 203 | 2.0 | 5.0 | 0.00 | 0.15 | 0.08 | 93 | 1010.5 |
| 20260831030038 | 57 | 180 | 3.0 | 6.0 | 0.00 | 0.15 | 0.08 | 93 | 1010.4 |
| 20260831025017 | 57 | 225 | 2.0 | 4.0 | 0.00 | 0.15 | 0.08 | 93 | 1010.3 |
| 20260831024016 | 57 | 180 | 2.0 | 5.0 | 0.01 | 0.15 | 0.08 | 92 | 1010.3 |
| 20260831023017 | 58 | 180 | 2.0 | 5.0 | 0.02 | 0.15 | 0.08 | 92 | 1010.3 |
| 20260831022017 | 58 | 203 | 2.0 | 5.0 | 0.02 | 0.15 | 0.08 | 92 | 1010.2 |
| 20260831021017 | 58 | 180 | 2.0 | 4.0 | 0.02 | 0.15 | 0.08 | 92 | 1010.1 |
| 20260831020017 | 59 | 225 | 3.0 | 6.0 | 0.02 | 0.15 | 0.08 | 92 | 1010.0 |
| 20260831015017 | 59 | 203 | 3.0 | 6.0 | 0.02 | 0.16 | 0.08 | 92 | 1010.1 |
| 20260831014017 | 60 | 203 | 3.0 | 6.0 | 0.02 | 0.15 | 0.07 | 93 | 1009.9 |
| 20260831013015 | 61 | 203 | 3.0 | 7.0 | 0.01 | 0.14 | 0.07 | 94 | 1009.9 |
| 20260831012017 | 61 | 203 | 3.0 | 5.0 | 0.01 | 0.14 | 0.06 | 94 | 1009.9 |
| 20260831011018 | 61 | 180 | 2.0 | 4.0 | 0.01 | 0.14 | 0.06 | 94 | 1009.9 |
| 20260831010017 | 60 | 203 | 1.0 | 4.0 | 0.02 | 0.14 | 0.06 | 94 | 1010.1 |
| 20260831005017 | 60 | 180 | 1.0 | 3.0 | 0.02 | 0.14 | 0.06 | 94 | 1009.9 |
| 20260831004017 | 60 | 225 | 1.0 | 4.0 | 0.06 | 0.13 | 0.06 | 93 | 1009.9 |
| 20260831003017 | 60 | 225 | 2.0 | 4.0 | 0.06 | 0.13 | 0.06 | 93 | 1009.9 |
| 20260831002017 | 60 | 225 | 3.0 | 7.0 | 0.06 | 0.13 | 0.06 | 92 | 1010.0 |
| 20260831001018 | 60 | 225 | 3.0 | 7.0 | 0.06 | 0.13 | 0.06 | 93 | 1010.0 |
| 20260831000017 | 61 | 203 | 3.0 | 6.0 | 0.05 | 0.13 | 0.05 | 93 | 1010.4 |
| 20260830235017 | 61 | 203 | 3.0 | 7.0 | 0.05 | 0.13 | 0.05 | 92 | 1010.4 |
| 20260830234017 | 61 | 225 | 2.0 | 7.0 | 0.00 | 0.09 | 0.00 | 93 | 1010.6 |
| 20260830233037 | 61 | 225 | 1.0 | 3.0 | 0.00 | 0.09 | 0.00 | 93 | 1010.5 |
| 20260830232017 | 61 | 225 | 1.0 | 2.0 | 0.00 | 0.09 | 0.00 | 92 | 1010.6 |
| 20260830231018 | 61 | 225 | 1.0 | 4.0 | 0.00 | 0.09 | 0.00 | 92 | 1010.7 |
| 20260830230019 | 61 | 248 | 2.0 | 4.0 | 0.00 | 0.09 | 0.00 | 92 | 1010.8 |
| 20260830225020 | 61 | 225 | 2.0 | 5.0 | 0.00 | 0.09 | 0.09 | 93 | 1010.8 |
| 20260830224018 | 61 | 225 | 2.0 | 4.0 | 0.00 | 0.09 | 0.09 | 93 | 1010.9 |
| 20260830223015 | 60 | 248 | 2.0 | 5.0 | 0.00 | 0.10 | 0.09 | 93 | 1011.1 |
| 20260830222016 | 60 | 225 | 2.0 | 6.0 | 0.00 | 0.10 | 0.09 | 92 | 1011.1 |
| 20260830221055 | 60 | 225 | 2.0 | 5.0 | 0.00 | 0.10 | 0.09 | 92 | 1011.2 |
| 20260830220016 | 60 | 203 | 2.0 | 4.0 | 0.00 | 0.11 | 0.09 | 92 | 1011.2 |
| 20260830215016 | 61 | 225 | 2.0 | 4.0 | 0.00 | 0.11 | 0.09 | 92 | 1011.1 |
| 20260830214015 | 61 | 225 | 2.0 | 4.0 | 0.00 | 0.11 | 0.09 | 92 | 1011.3 |
| 20260830213015 | 61 | 203 | 2.0 | 5.0 | 0.00 | 0.11 | 0.09 | 92 | 1011.4 |
| 20260830212015 | 61 | 225 | 3.0 | 6.0 | 0.05 | 0.12 | 0.09 | 92 | 1011.4 |
| 20260830211015 | 61 | 203 | 2.0 | 4.0 | 0.05 | 0.12 | 0.09 | 92 | 1011.3 |
| 20260830210015 | 62 | 203 | 2.0 | 4.0 | 0.05 | 0.13 | 0.09 | 92 | 1011.3 |
| 20260830205015 | 62 | 203 | 2.0 | 4.0 | 0.05 | 0.13 | 0.09 | 91 | 1011.3 |
| 20260830204037 | 63 | 203 | 3.0 | 8.0 | 0.05 | 0.13 | 0.09 | 90 | 1011.4 |
| 20260830203016 | 64 | 180 | 2.0 | 5.0 | 0.05 | 0.13 | 0.09 | 88 | 1011.4 |
| 20260830202016 | 65 | 180 | 4.0 | 8.0 | 0.00 | 0.09 | 0.05 | 87 | 1011.6 |
| 20260830201015 | 65 | 203 | 2.0 | 5.0 | 0.00 | 0.09 | 0.05 | 86 | 1011.1 |
| 20260830200015 | 64 | 225 | 1.0 | 3.0 | 0.00 | 0.09 | 0.05 | 87 | 1011.0 |
| 20260830195016 | 64 | 0.0 | 2.0 | 0.00 | 0.10 | 0.05 | 87 | 1011.4 | |
| 20260830194015 | 64 | 0.0 | 1.0 | 0.00 | 0.11 | 0.05 | 87 | 1011.3 | |
| 20260830193016 | 65 | 0.0 | 1.0 | 0.00 | 0.11 | 0.05 | 86 | 1011.3 | |
| 20260830192035 | 65 | 0.0 | 0.0 | 0.00 | 0.12 | 0.05 | 85 | 1011.4 | |
| 20260830191015 | 65 | 225 | 1.0 | 3.0 | 0.00 | 0.13 | 0.05 | 84 | 1011.4 |
| 20260830190015 | 65 | 203 | 1.0 | 3.0 | 0.00 | 0.13 | 0.05 | 84 | 1011.7 |
| 20260830185016 | 65 | 203 | 1.0 | 3.0 | 0.00 | 0.13 | 0.05 | 84 | 1011.9 |
| 20260830184015 | 65 | 203 | 1.0 | 4.0 | 0.00 | 0.14 | 0.05 | 84 | 1011.9 |
| 20260830183017 | 65 | 225 | 1.0 | 3.0 | 0.00 | 0.14 | 0.05 | 84 | 1011.9 |
| 20260830182015 | 65 | 225 | 1.0 | 4.0 | 0.00 | 0.15 | 0.05 | 83 | 1011.8 |
| 20260830181015 | 66 | 225 | 2.0 | 4.0 | 0.00 | 0.16 | 0.05 | 83 | 1011.9 |
| 20260830180016 | 66 | 225 | 3.0 | 6.0 | 0.00 | 0.17 | 0.05 | 82 | 1012.1 |